HELLAS-SAT 4 & SGS-1

Last updated on Tue Sep 22 2026 00:03:14 GMT+0000 (Coordinated Universal Time)

1 44034U 19007A 26264.06916883 .00000149 00000+0 00000+0 0 9995 2 44034 0.0634 131.9457 0006483 26.3513 265.5621 1.00270962 28331
UTC large
Height (km)
Speed (km/s)
/
Latitude / Longitude
Inclination (degrees)
Orbital Period (minutes)
Azimuth
Elevation
Range (km)
Doppler Factor

Next 0 passes for location: London (51.5072 / 0.1276)

No passes found over London.
HELLAS-SAT 4 & SGS-1